This demonstration page uses our WeatherBlox Daily Observations layout. Learn more.

Left ArrowRight Arrow

39.08367, -84.50855

Hourly Observations for March 13, 2020

Temp ( °F °C ) Dew Point ( °F °C ) Humidity (%) Winds ( mph kmh ) Pressure ( in mb ) Visibility ( mi km ) Precip ( " mm )
12:06 am 00:06 Cloudy 62 16.7 59 15 90 90 SSW 12 19 29.67 1005 10 16 N/A
12:53 am 00:53 Cloudy 62 16.7 59 15 90 90 SW 9 15 29.69 1005 10 16 N/A
1:53 am 01:53 Cloudy with Light Rain 62 16.7 58 14.4 86 86 WNW 15 24 29.72 1006 6 10 0.02 0.51
2:35 am 02:35 Cloudy 61 16.1 55 12.8 81 81 W 9 15 29.76 1008 10 16 0.00 0.00
2:53 am 02:53 Cloudy 60 15.6 55 12.8 84 84 W 8 13 29.77 1008 10 16 0.00 0.00
3:09 am 03:09 Cloudy 60 15.6 54 12.2 80 80 NW 10 17 29.79 1009 10 16 N/A
3:27 am 03:27 Mostly Cloudy 59 15 52 11.1 78 78 NW 8 13 29.80 1009 10 16 N/A
3:41 am 03:41 Mostly Cloudy 59 15 52 11.1 78 78 NW 9 15 29.81 1009 10 16 N/A
3:53 am 03:53 Mostly Cloudy 59 15 52 11.1 78 78 NW 7 11 29.81 1010 10 16 N/A
4:41 am 04:41 Cloudy 58 14.4 51 10.6 78 78 W 8 13 29.85 1011 10 16 N/A
4:53 am 04:53 Cloudy 57 13.9 51 10.6 81 81 W 9 15 29.85 1011 10 16 N/A
5:09 am 05:09 Cloudy 57 13.9 51 10.6 81 81 W 8 13 29.87 1012 10 16 N/A
5:49 am 05:49 Mostly Cloudy 54 12 45 7 72 72 W 22 35 29.94 1014 10 16 N/A
5:53 am 05:53 Partly Cloudy 53 11.7 44 6.7 72 72 W 16 26 29.94 1014 10 16 N/A
6:53 am 06:53 Mostly Clear 49 9.4 40 4.4 71 71 WNW 8 13 30.01 1016 10 16 N/A
7:53 am 07:53 Mostly Sunny 46 7.8 37 2.8 71 71 VRB 5 7 30.07 1018 10 16 N/A
8:53 am 08:53 Mostly Sunny 46 7.8 36 2.2 68 68 W 7 11 30.11 1020 10 16 N/A
9:53 am 09:53 Sunny 47 8.3 34 1.1 61 61 W 13 20 30.16 1021 10 16 N/A
10:53 am 10:53 Sunny 49 9.4 34 1.1 56 56 WNW 13 20 30.19 1022 10 16 N/A
11:53 am 11:53 Sunny 51 10.6 31 -0.6 46 46 W 15 24 30.21 1023 10 16 N/A
12:53 pm 12:53 Sunny 51 10.6 31 -0.6 46 46 W 13 20 30.24 1024 10 16 N/A
1:53 pm 13:53 Sunny 52 11.1 27 -2.8 38 38 W 15 24 30.25 1024 10 16 N/A
2:53 pm 14:53 Sunny 52 11.1 25 -3.9 35 35 VRB 7 11 30.25 1025 10 16 N/A
3:53 pm 15:53 Sunny 53 11.7 25 -3.9 34 34 NNW 12 19 30.26 1025 10 16 N/A
4:53 pm 16:53 Sunny 53 11.7 23 -5 31 31 NNW 8 13 30.27 1025 10 16 N/A
5:53 pm 17:53 Sunny 52 11.1 24 -4.4 34 34 NNW 13 20 30.31 1026 10 16 N/A
6:53 pm 18:53 Sunny 51 10.6 23 -5 33 33 NW 8 13 30.32 1027 10 16 N/A
7:53 pm 19:53 Clear 49 9.4 22 -5.6 35 35 NNW 8 13 30.34 1028 10 16 N/A
8:53 pm 20:53 Clear 48 8.9 23 -5 37 37 NNW 5 7 30.37 1028 10 16 N/A
9:53 pm 21:53 Clear 46 7.8 24 -4.4 42 42 NW 5 7 30.38 1029 10 16 N/A
10:53 pm 22:53 Clear 39 3.9 31 -0.6 73 73 N N/A 30.40 1029 10 16 N/A
11:53 pm 23:53 Clear 38 3.3 32 undefined 79 79 N N/A 30.42 1030 10 16 N/A

Powered by AerisWeather